Ultra Tour de Liège 20/10/2013 - 65,5 Km
Place Nom Prenom Temps Km/h Place. Cat. Cat.
1 DEVILLE MATHIEU 119 5:59:00 10,9 1 S
2 OST ISABELLE 159 6:54:04 9,5 1 D
3 VANDEBEEK PATRICK 152 6:54:06 9,5 2 S
4 BROCHET THOMAS 182 6:59:24 9,4 3 S
5 JUST JÖRG 248 7:07:02 9,2 4 S
6 LENAERTS EDWIN 103 7:12:23 9,1 5 S
7 REUL BENEDICTE 105 7:23:06 8,9 2 D
8 PEELEN ANTHONY 106 7:23:06 8,9 6 S
9 LABBE GAETAN 196 7:23:06 8,9 7 S
10 TAILLEBOSQ SYLVAIN 242 7:23:06 8,9 8 S
11 LUXEN JEAN-MICHEL 60 7:24:38 8,8 9 S
12 ROOMANS CHRISTIAN 46 7:28:04 8,8 10 S
13 SCHOIBER OLIVER 256 7:28:30 8,8 11 S
14 FLICK MARKUS 247 7:28:30 8,8 12 S
15 KAMINSKY PETER 249 7:28:30 8,8 13 S
16 BERNAERS INGMAR 139 7:30:13 8,7 14 S
17 NOVILLE MAURICE - CAMPARI 6 7:30:13 8,7 15 S
18 HERMANT PHILIPPE 195 7:30:30 8,7 16 S
19 KURZ XAVIER 140 7:30:32 8,7 17 S
20 LEPELLETIER DOMINIQUE 226 7:33:38 8,7 18 S
21 FOX DAVID 104 7:34:06 8,7 19 S
22 GREATTI CHRISTOPHE 88 7:34:57 8,6 20 S
23 HECQ OLIVIER 53 7:35:46 8,6 21 S
24 LODEZ JEAN-MICHEL 156 7:36:15 8,6 22 S
25 DAVID GÉRARD 70 7:37:05 8,6 23 S
26 BLAUWART BORIS 176 7:41:45 8,5 24 S
27 MALGRANGE BRIGITTE 95 7:41:54 8,5 3 D
28 COUSIN ANTHONY 190 7:42:00 8,5 25 S
29 HUENS ETIENNE 102 7:42:38 8,5 26 S
30 ASSELIN PHILIPPE 172 7:44:02 8,5 27 S
31 SOMVILLE PIERROT 64 7:45:14 8,4 28 S
32 GUSTIN EDDY 18 7:47:32 8,4 29 S
33 DUTZ OLIVIER 269 7:47:41 8,4 30 S
34 BREUZIN THEOPHANE 26 7:53:23 8,3 31 S
35 BREUZIN CHRISTOPHE 180 7:53:23 8,3 32 S
36 BEAUMONT SYLVAIN 173 7:54:57 8,3 33 S
37 ROGER ARNAUD 239 7:54:57 8,3 34 S
38 KEMPINSKI ROGER 284 7:58:50 8,2 35 S
39 LHOAS FRANCOISE 74 7:59:01 8,2 4 D
40 PETERS STEPHAN 127 8:03:33 8,1 36 S
41 DONNAY RAPHAEL 143 8:05:31 8,1 37 S
42 LAMBORELLE MICHEL 68 8:10:11 8,0 38 S
43 WAUQUIEZ XAVIER 89 8:10:11 8,0 39 S
44 BIZET NICOLAS 175 8:16:55 7,9 40 S
45 SLIEPERS PETRA 263 8:22:50 7,8 5 D
46 SCHAMPHELEER WILLIEM 264 8:22:50 7,8 41 S
47 SASSIER SYLVIE 241 8:24:48 7,8 6 D
48 CHAPEL THIERRY 188 8:24:48 7,8 42 S
49 SASSIER ERIC 240 8:24:48 7,8 43 S
50 GOOSSE PHILIPPE 141 8:24:48 7,8 44 S
51 BEYER BRUNO 22 8:27:23 7,7 45 S
52 DEMIRKAZAN MIKAIL 111 8:27:50 7,7 46 S
53 REGNIER DIDIER 144 8:28:25 7,7 47 S
54 JANSSEN PETER 260 8:32:07 7,7 48 S
55 HANSSEN ROLAND 86 8:32:15 7,7 49 S
56 CHARLES CYRILLE 63 8:32:17 7,7 50 S
57 MORICE LAURENT 230 8:32:17 7,7 51 S
58 PINCKAERS CHRISTOPHE 126 8:32:24 7,7 52 S
59 L'HOSTIS YANN 229 8:34:01 7,6 53 S
60 DEDRIE BJORN 137 8:34:02 7,6 54 S
61 DELSAUTE STIAN 25 8:34:43 7,6 55 S
62 DE BEER OLIVIER 73 8:35:11 7,6 56 S
63 SONTAG THIERRY 33 8:35:27 7,6 57 S
64 DEWIT GEERT 40 8:38:18 7,6 58 S
65 GALVAIRE CHRISTOPHE 194 8:46:57 7,5 59 S
66 HEMMER OLIVIER 282 8:47:16 7,5 60 S
67 BODART STECY 178 8:47:37 7,4 61 S
68 VARETTO SÉBASTIEN 16 8:49:42 7,4 62 S
69 BEMONG MARC 146 8:51:29 7,4 63 S
70 LEBUSSY PHILIPPE 272 8:52:50 7,4 64 S
71 ENGELEN DAVID 59 8:52:54 7,4 65 S
72 VAN DER WAL RINUS 255 8:56:06 7,3 66 S
73 LUX ARNO 123 8:56:29 7,3 67 S
74 BRUNEEL MICHEL 55 8:56:58 7,3 68 S
75 VLASSAK WILBERT 100 8:57:43 7,3 69 S
76 WUIDARD JEAN-LUC 138 8:58:22 7,3 70 S
77 CANIVEZ DENIS 187 9:05:15 7,2 71 S
78 LEJEUNE CHRISTINE 84 9:07:06 7,2 7 D
79 SCHEULJENS PETER 276 9:10:41 7,1 72 S
80 SCHOEFS LUCIEN 49 9:11:54 7,1 73 S
81 CARABIN PATRICE 133 9:12:47 7,1 74 S
82 DELVENNE JEAN FRANÇOIS 117 9:12:52 7,1 75 S
83 MEUWIS JOEL 48 9:14:59 7,1 76 S
84 FAORLIN FABIANO 115 9:15:10 7,1 77 S
85 HENNEN THIEBAUT 279 9:19:13 7,0 78 S
86 DIFFELS VINCIANE 76 9:19:43 7,0 8 D
87 DEMOULIN ANNE 257 9:19:43 7,0 9 D
88 POLIZZI ANTONIO 50 9:23:42 7,0 79 S
89 LENGLIN PASCAL 222 9:30:34 6,9 80 S
90 BERTHELIN LAURENT 174 9:30:34 6,9 81 S
91 MATHIEU MURIELLE 273 9:33:57 6,8 10 D
92 DELHASSE YANNICK 83 9:36:34 6,8 82 S
93 DUBOIS FREDERIC 69 9:36:34 6,8 83 S
94 ARNOLD PASCAL 51 9:36:34 6,8 84 S
95 BRAVARD THIERRY 179 9:36:57 6,8 85 S
96 ZADWORNY FRANÇOIS 80 9:37:27 6,8 86 S
97 EHRENBERGER DIETER 245 9:37:28 6,8 87 S
98 FONTAINE SERGE 3 9:40:58 6,8 88 S
99 GOOSSE NATHALIE 124 9:41:57 6,8 11 D
100 CARAMIA VINCENZO 125 9:41:57 6,8 89 S
101 PONCIN CHRISTIAN 129 9:43:09 6,7 90 S
102 SCHAFFRAIX GINETTE 283 9:43:15 6,7 12 D
103 RIMETZ FABIEN 238 9:43:15 6,7 91 S
104 LHOEST DANIEL 107 9:44:27 6,7 92 S
105 JACOB BERNARD 271 9:44:27 6,7 93 S
106 COLLINET MARC 96 9:44:27 6,7 94 S
107 PARMENTIER JEROME 232 9:44:51 6,7 95 S
108 FALISE OLIVIER 267 9:44:53 6,7 96 S
109 JANSSEN PIERRE-FRANÇOIS 58 9:44:56 6,7 97 S
110 RENSON LUC 121 9:46:10 6,7 98 S
111 VERHAEGEN BENOIT 122 9:49:42 6,7 99 S
112 COLLARD STEPHANE 261 9:49:50 6,7 100 S
113 BERODE JÉRÔME 130 9:49:50 6,7 101 S
114 VANDERMEULEN BENOIT 259 9:49:50 6,7 102 S
115 MELOT VERONIQUE 145 9:55:29 6,6 13 D
116 LOPEZ CELSO 158 9:59:37 6,6 103 S
117 FIEVET DOMINIQUE 192 9:59:38 6,6 104 S
118 PEETERS BENNY 120 10:03:44 6,5 105 S
119 DECORTE CLAUDE 56 10:06:52 6,5 106 S
120 LESOT PASCAL 227 10:16:33 6,4 107 S
121 LEJEUNE ERIC 45 10:17:44 6,4 108 S
122 JEANMART LAURENT 43 10:17:44 6,4 109 S
123 ROHRMANN BERND 251 10:28:35 6,3 110 S
124 LIBOIS OLIVIER - MOGWAÏ 34 10:29:54 6,2 111 S
125 VANBELLINGEN HANS 109 10:32:20 6,2 112 S
126 DAWIRS MICHEL - MERCATOR 79 10:37:15 6,2 113 S
127 PENAY THIERRY 268 11:06:57 5,9 114 S
128 PENAY ERIC 47 11:06:57 5,9 115 S
129 KAIRIS PATRICK 9 11:36:45 5,6 116 S
130 VANDERLINDEN DENIS 136 11:40:13 5,6 117 S
131 ELMEKKI MOHAMED 93 11:51:26 5,5 118 S